Location: Cornospital
(48.0620°N, 3.3837°W)
Time: 21:18:26
(UTC+00:00)

Cosmos 2237 - Pass Details

Date: 17 June 2021
Orbit: 847 x 854 km, 70.8° (Epoch: 03 August)

Event Time Altitude Azimuth Distance (km) Brightness Sun altitude
Rises 21:49:21 0° 212° (SSW) 3,399 7.1 -11.5°
Reaches altitude 10° 21:51:47 10° 214° (SSW) 2,467 6.4 -11.7°
Maximum altitude 21:57:27 74° 299° (WNW) 884 4.5 -12.2°
Drops below altitude 10° 22:03:10 10° 25° (NNE) 2,482 7.1 -12.7°
Sets 22:05:38 0° 28° (NNE) 3,421 7.8 -12.9°
